Back to catalog

OPS 4682 DEB

AlivePO
NORAD 38370·DEBRIS·🇺🇸 United States

Launched Apr 3, 1965 from Vandenberg Space Force Base

Loading…

Next Passes (next 24 hours)

TLE

AgingSource: Space-Track

Epoch: Sep 7, 2026, 19:07 UTC

1 38370U 65027BX  26250.79666659  .00001531  00000-0  49896-2 0  9998
2 38370  90.2587  13.8955 0026486  59.3462 301.0267 13.00932090616548

Track OPS 4682 DEB in real time with AllMySat

Download on the App Store